Lid_Strength_Index
-1 -1 -1 -1 -1 -1 -1 -1 -1 -0 -1 -0 -1 -1 -1 -1 -1 0 4 1 -0 -2 -1 1 1 2 3 5 4 6 11 14 12 11 10 8 9 8 7 6 6 5 5 4 3
-1 -1 -1 -1 -1 -1 -1 -1 -1 -1 -1 -1 -1 -1 -1 -1 1 3 -1 -2 -2 -2 1 3 4 3 6 6 6 8 12 11 8 8 9 8 8 8 9 8 8 7 4 3 3
-0 -1 -1 -1 -1 -1 -1 -1 -1 -1 -1 -1 -1 -1 -1 -0 4 4 -2 -2 -2 -2 1 1 3 4 7 6 7 8 11 9 8 7 7 7 8 8 9 10 8 7 6 4 4
-0 -1 -1 -1 -1 -1 -1 -1 -1 -1 -1 -1 -1 -1 -1 1 14 2 -2 -2 -2 -0 1 3 4 7 8 9 6 10 8 7 7 6 7 8 6 7 8 9 7 7 4 4 4
-0 -0 -1 -1 -1 -1 -1 -1 -1 -1 -1 -1 -1 -1 1 6 6 0 -1 -1 -0 1 3 4 6 7 9 8 7 9 8 7 6 7 7 7 8 8 7 6 5 6 4 4 4
0 0 -0 -1 -1 -1 -1 -1 -1 -1 -1 -1 -1 -1 5 10 3 1 -0 0 1 2 3 4 5 5 7 8 8 7 7 7 6 7 7 8 8 8 7 5 6 6 6 5 4
-0 -0 -0 -0 -1 -1 -1 -1 -1 -1 -1 -1 -0 1 5 9 4 3 0 1 1 2 4 3 3 6 6 8 6 7 9 8 8 7 8 7 10 10 6 5 6 6 7 7 4
-1 -1 -1 -1 -1 -1 -1 -1 -1 -1 -1 -1 -1 3 8 3 3 4 1 2 1 1 2 2 2 5 7 6 7 10 10 13 9 8 7 8 13 8 6 6 7 6 6 7 7
-1 -1 -1 -1 -1 -1 -1 -1 -1 -1 -1 -1 2 4 8 3 5 4 3 3 2 1 2 1 3 7 7 11 13 11 16 14 11 7 8 9 12 8 6 6 7 7 7 6 7
-1 -0 -1 -1 -1 -1 -1 -1 -1 -1 -0 -0 2 6 6 8 6 5 5 3 4 4 5 6 7 10 10 12 17 16 14 13 13 10 9 10 10 8 6 7 7 7 7 7 6
-1 0 0 -1 -1 -1 -0 1 5 6 4 6 6 7 7 5 4 6 5 4 4 6 10 8 12 13 12 11 10 11 13 13 11 8 10 10 10 8 7 7 8 7 8 7 7
-1 -1 0 0 -1 -1 0 4 4 3 8 4 5 5 5 5 7 6 4 7 8 11 9 11 13 9 9 9 11 11 13 13 11 9 10 10 10 9 8 8 8 8 8 7 6
-1 -1 -0 0 -1 0 2 3 0 2 8 7 5 6 5 5 7 7 5 6 9 10 10 12 11 8 10 11 12 12 13 14 13 10 10 12 13 11 8 7 6 6 7 8 6
-1 -1 -0 -0 3 2 4 0 1 2 12 11 9 6 5 5 8 5 4 6 8 11 10 10 8 10 11 12 11 14 10 11 12 13 17 12 19 12 10 9 8 7 7 6 7
-1 -1 -1 -0 2 4 2 -0 1 6 20 10 9 3 5 7 7 7 4 6 10 10 10 12 11 11 12 11 10 12 9 11 12 14 15 14 17 14 10 10 9 8 7 7 6
-1 -1 -1 1 2 1 -0 1 4 14 20 12 9 9 9 8 8 7 7 5 6 9 9 10 7 8 10 9 9 9 11 13 13 14 19 14 16 15 12 10 9 8 7 7 7
-1 -1 -0 1 5 1 0 4 14 18 11 13 12 10 10 11 9 9 10 11 12 15 15 11 11 9 8 11 9 10 14 19 20 20 20 14 16 14 10 9 9 8 8 8 8
-1 -1 0 1 1 1 3 10 18 13 13 10 10 10 13 10 10 10 11 13 10 11 13 15 17 11 9 11 13 13 13 18 22 21 19 14 18 14 8 7 7 6 7 7 7
-1 1 2 2 1 2 7 15 15 13 11 12 11 13 13 11 11 11 12 12 10 10 14 15 15 9 9 9 9 13 15 11 17 18 19 17 14 10 9 9 9 8 8 8 8
3 3 3 2 1 5 10 13 12 9 9 10 14 12 15 13 13 12 12 10 11 8 9 12 16 11 9 9 9 11 10 16 16 21 22 19 17 15 12 10 9 9 9 9 8
3 7 3 1 2 10 13 12 11 8 8 11 13 13 13 13 12 13 13 11 9 9 9 11 13 13 11 13 13 13 14 13 14 16 20 21 17 12 10 9 9 9 9 9 8
8 10 2 1 9 10 12 10 8 9 8 9 9 11 12 11 13 13 13 12 8 8 11 10 12 17 14 10 9 10 12 13 17 18 16 17 17 10 9 9 9 11 10 9 8
8 8 2 5 12 12 10 10 9 10 10 10 10 9 9 11 14 12 12 9 8 9 10 10 15 21 17 13 12 12 12 11 13 14 17 19 17 9 10 11 11 11 10 10 10
7 11 8 9 9 10 12 12 12 8 9 9 9 9 10 11 10 12 11 9 8 8 7 8 13 16 17 16 12 14 13 12 13 16 16 16 14 10 9 11 10 10 10 9 10
7 11 10 12 11 10 10 11 12 12 9 10 10 10 11 13 12 12 10 10 9 7 8 10 17 14 14 12 12 13 12 11 13 12 16 13 13 10 9 10 11 10 9 9 9
9 9 10 11 10 11 11 11 11 11 10 12 12 10 10 12 11 12 12 12 11 9 9 10 17 13 17 12 12 15 13 12 11 11 12 12 13 8 9 11 10 10 9 9 9
7 6 9 10 13 13 14 11 11 9 9 8 9 10 11 9 8 7 7 8 9 9 10 11 14 20 23 14 14 17 14 13 13 11 11 14 10 8 10 10 10 10 10 10 10